DW1289 Weather Reports


Display with metric or nautical units.
time (UTC)temp
F
wind
direction
speed
MPH
gust
MPH
rain 1hr
in
rain 24hr
in
rain mn
in
humidity
%
barometer
mb
20260505001016 74 248 4.0 8.0 0.00 0.07 0.07 49 1005.9
20260505000016 75 248 4.0 11.0 0.00 0.07 0.07 48 1006.2
20260504235017 75 248 5.0 12.0 0.00 0.07 0.07 47 1006.2
20260504234016 76 248 5.0 13.0 0.00 0.07 0.07 47 1006.3
20260504233016 76 248 4.0 11.0 0.00 0.07 0.07 46 1006.7
20260504232016 76 248 5.0 14.0 0.00 0.07 0.07 45 1006.9
20260504231016 77 248 4.0 12.0 0.00 0.07 0.07 46 1007.2
20260504230036 77 225 5.0 12.0 0.00 0.07 0.07 46 1007.4
20260504225016 77 225 6.0 12.0 0.00 0.07 0.07 46 1007.4
20260504224016 77 248 6.0 13.0 0.00 0.07 0.07 45 1007.6
20260504223016 77 248 6.0 13.0 0.00 0.07 0.07 45 1007.7
20260504222036 77 248 7.0 14.0 0.00 0.07 0.07 45 1007.9
20260504221036 78 248 8.0 15.0 0.00 0.07 0.07 45 1008.1
20260504220016 78 248 7.0 12.0 0.00 0.07 0.07 44 1008.0
20260504215036 78 248 8.0 15.0 0.00 0.07 0.07 44 1008.1
20260504214016 79 248 8.0 20.0 0.00 0.07 0.07 45 1008.0
20260504213036 79 225 7.0 19.0 0.00 0.07 0.07 45 1008.0
20260504212016 79 248 7.0 14.0 0.00 0.07 0.07 45 1008.2
20260504211016 81 248 7.0 13.0 0.00 0.07 0.07 45 1008.2
20260504210036 80 248 7.0 18.0 0.00 0.07 0.07 45 1008.3
20260504205016 80 248 6.0 15.0 0.00 0.07 0.07 46 1008.2
20260504204016 81 248 7.0 16.0 0.00 0.07 0.07 45 1008.3
20260504203016 81 248 7.0 15.0 0.00 0.07 0.07 47 1008.3
20260504202016 79 248 8.0 15.0 0.00 0.07 0.07 47 1008.4
20260504201016 80 248 7.0 15.0 0.00 0.07 0.07 45 1008.5
20260504200056 80 248 8.0 18.0 0.00 0.07 0.07 45 1008.6
20260504195016 80 248 7.0 17.0 0.00 0.07 0.07 44 1008.8
20260504194016 81 248 8.0 18.0 0.00 0.07 0.07 43 1009.0
20260504193016 81 248 8.0 18.0 0.00 0.07 0.07 45 1009.1
20260504192016 81 248 6.0 15.0 0.00 0.07 0.07 46 1009.2
20260504191016 80 248 7.0 16.0 0.00 0.07 0.07 46 1009.3
20260504190016 80 248 7.0 15.0 0.00 0.07 0.07 46 1009.3
20260504185016 80 248 8.0 18.0 0.00 0.07 0.07 48 1009.5
20260504184016 80 248 6.0 18.0 0.00 0.07 0.07 49 1009.6
20260504183036 79 248 7.0 12.0 0.00 0.07 0.07 48 1009.7
20260504182016 79 248 8.0 15.0 0.00 0.07 0.07 48 1009.6
20260504181036 79 248 7.0 15.0 0.00 0.07 0.07 48 1009.9
20260504180016 79 248 6.0 16.0 0.00 0.07 0.07 48 1009.8
20260504175036 79 248 6.0 12.0 0.00 0.07 0.07 52 1009.7
20260504174056 78 248 7.0 15.0 0.00 0.07 0.07 48 1009.8
20260504173016 78 248 6.0 15.0 0.00 0.07 0.07 51 1009.7
20260504172016 77 248 7.0 14.0 0.00 0.07 0.07 52 1009.9
20260504171016 77 248 6.0 15.0 0.00 0.07 0.07 53 1009.8
20260504151016 70 248 7.0 15.0 0.00 0.07 0.07 59 1010.8
20260504141036 59 248 5.0 10.0 0.00 0.07 0.07 77 1011.0
20260504081016 55 248 4.0 8.0 0.00 0.00 0.00 70 1011.5
20260504050016 54 248 2.0 7.0 0.00 0.00 0.00 67 1013.6
20260504045016 53 225 2.0 7.0 0.00 0.00 0.00 69 1013.8
20260504044016 53 248 2.0 8.0 0.00 0.00 0.00 71 1013.7
20260504043016 52 248 3.0 8.0 0.00 0.00 0.00 72 1013.9
20260504042016 52 225 2.0 5.0 0.00 0.00 0.00 70 1013.7
20260504041016 51 248 2.0 4.0 0.00 0.00 0.00 70 1013.8
20260504040016 51 0.0 3.0 0.00 0.00 0.00 69 1013.9
20260504035016 51 0.0 0.0 0.00 0.00 0.00 69 1014.0
20260504034017 51 0.0 0.0 0.00 0.00 0.00 69 1014.2
20260504033016 51 0.0 0.0 0.00 0.00 0.00 68 1014.1
20260504032016 51 0.0 0.0 0.00 0.00 0.00 68 1014.3
20260504031016 52 0.0 0.0 0.00 0.00 0.00 68 1014.5
20260504030016 52 0.0 0.0 0.00 0.00 0.00 68 1014.5
20260504025016 52 0.0 0.0 0.00 0.00 0.00 67 1014.5
20260504024017 53 0.0 0.0 0.00 0.00 0.00 66 1014.5
20260504023017 53 0.0 0.0 0.00 0.00 0.00 65 1014.5
20260504022016 54 0.0 0.0 0.00 0.00 0.00 63 1014.5
20260504021016 54 0.0 0.0 0.00 0.00 0.00 61 1014.6
20260504020016 55 0.0 0.0 0.00 0.00 0.00 60 1014.6
20260504015016 56 0.0 0.0 0.00 0.00 0.00 58 1014.5
20260504014016 57 0.0 0.0 0.00 0.00 0.00 56 1014.5
20260504013017 57 0.0 0.0 0.00 0.00 0.00 54 1014.5
20260504012036 59 0.0 0.0 0.00 0.00 0.00 52 1014.4
20260504011017 59 0.0 0.0 0.00 0.00 0.00 50 1014.3
20260504010017 60 0.0 2.0 0.00 0.00 0.00 49 1014.1
20260504005016 61 225 2.0 4.0 0.00 0.00 0.00 48 1013.7
20260504004016 61 248 2.0 7.0 0.00 0.00 0.00 48 1013.8
20260504003016 62 248 2.0 6.0 0.00 0.00 0.00 46 1013.9
20260504002016 62 248 3.0 7.0 0.00 0.00 0.00 46 1013.7